Date,TemperatureHighF,TemperatureAvgF,TemperatureLowF,DewpointHighF,DewpointAvgF,DewpointLowF,HumidityHigh,HumidityAvg,HumidityLow,PressureMaxIn,PressureMinIn,WindSpeedMaxMPH,WindSpeedAvgMPH,GustSpeedMaxMPH,PrecipitationSumIn
2013-1-5,23,22,21,11,8,5,62,56,46,30.22,30.19,2,1,3,0.00
2013-1-6,40,29,19,17,4,-7,59,36,17,30.21,29.87,4,1,6,0.02
2013-1-7,48,36,27,21,9,2,65,35,16,29.96,29.75,3,1,7,0.02
2013-1-8,48,41,31,17,13,4,54,33,18,30.17,29.72,26,4,30,0.01
2013-1-9,51,36,28,20,16,12,66,45,21,30.25,29.94,3,0,5,0.00
2013-1-10,42,33,25,21,14,7,69,47,24,29.95,29.40,4,1,6,0.00
2013-1-11,38,25,9,22,10,-4,83,57,18,29.71,29.23,21,2,21,0.00
2013-1-12,14,8,3,5,2,-3,82,75,61,29.90,29.71,3,1,7,0.00
2013-1-13,12,5,-2,3,-2,-8,77,71,60,30.01,29.87,3,0,6,0.00
2013-1-14,13,5,-1,-1,-4,-8,76,66,50,30.05,29.92,3,0,7,0.00
2013-1-15,32,18,0,14,1,-10,69,50,33,30.05,29.94,3,1,9,0.00
2013-1-16,50,36,27,21,16,12,58,44,25,30.31,30.05,5,1,9,0.00
2013-1-17,46,33,24,19,14,9,63,47,27,30.39,30.16,3,1,6,0.00
2013-1-18,55,42,28,13,3,-1,50,22,11,30.16,29.98,14,4,25,0.00
2013-1-19,54,41,29,9,5,-1,40,23,13,30.20,30.01,4,1,11,0.00
2013-1-20,46,32,20,12,8,3,66,39,19,30.22,30.07,5,1,12,0.00
2013-1-21,50,34,18,13,7,-6,74,39,12,30.16,29.98,6,1,13,0.00
2013-1-22,57,44,30,9,-2,-18,28,15,5,30.12,29.96,12,2,21,0.00
2013-1-23,64,50,35,8,-5,-21,30,11,4,30.14,30.06,11,2,21,0.00
2013-1-24,60,46,29,24,9,-4,42,23,9,30.10,29.91,19,4,28,0.00
2013-1-25,52,41,32,26,23,19,65,49,31,30.14,30.02,4,1,14,0.00
2013-1-26,50,40,32,31,25,22,73,56,37,30.03,29.72,3,0,7,0.00
2013-1-27,55,43,33,33,26,15,82,55,23,29.74,29.66,5,1,10,0.00
2013-1-28,45,35,24,28,22,16,88,62,41,29.69,29.53,5,1,13,0.00
2013-1-29,28,23,16,21,10,-6,88,61,22,29.85,29.60,19,3,24,0.02
2013-1-30,37,24,10,15,7,-1,71,50,33,29.86,29.71,8,1,15,0.01
2013-1-31,45,32,21,22,18,10,82,61,25,30.08,29.95,14,2,24,0.02